Voltar ao catálogo

COSMOS 2526

AtivoNavegaçãoGEO
NORAD 43432·PAYLOAD·🇷🇺 Russia

Lançado Apr 18, 2018 de Baikonur Cosmodrome

Loading…

TLE

AtualizadoSource: Space-Track

Época: Sep 14, 2026, 16:07 UTC

1 43432U 18037A   26257.67173478 -.00000352  00000-0  00000+0 0  9990
2 43432   0.0259 115.4742 0000550 120.2397 127.8309  1.00275211 30857

Acompanhe COSMOS 2526 em tempo real com AllMySat

Download on the App Store